Preview of NWS' New Version of Forecast
This preview is not operational and should not be used for support decisions.

Regional Weather Roundup (RWR)

Issued by National Weather Service (NWS)

                            
000
ASUS44 KJAN 230410
RWRMS 

MISSISSIPPI HOURLY WEATHER ROUNDUP
NATIONAL WEATHER SERVICE JACKSON MS
1100 PM CDT SAT JUN 22 2019

NOTE: "FAIR: INDICATES FEW OR NO CLOUDS BELOW 12,000 FEET WITH NO
SIGNIFICANT WEATHER AND/OR OBSTRUCTIONS TO VISIBILITY.

MSZ001>002-007>008-010>013-018>021-025>028-034>036-230500-
NORTHWEST MISSISSIPPI
  
CITY           SKY/WX    TMP DP  RH WIND       PRES   REMARKS
BATESVILLE     FAIR      77  70  78 S9        30.00F                  
CLARKSDALE       N/A     82  77  83 SE9       30.00F HX  91           
CLEVELAND      FAIR      82  74  76 SE7       30.00S                  
GREENWOOD      FAIR      80  74  81 CALM      30.02S                  
GREENVILLE     FAIR      83  74  74 SE8       29.99F                  
OLIVE BRANCH     N/A     70  70 100 SE8       30.00F                  
OXFORD         FAIR      70  70 100 SE8       30.05S                  
TUNICA           N/A     75  68  78 S12       29.99F                  
WINONA         FAIR      78  78  99 CALM      30.04S                  
$$

MSZ003>006-009-014>017-022>024-029>033-037>039-230500-
NORTHEAST MISSISSIPPI
  
CITY           SKY/WX    TMP DP  RH WIND       PRES   REMARKS
ABERDEEN       FAIR      70  63  78 S5        30.07S                  
COLUMBUS AFB   FAIR      72  69  89 S6        30.05F                  
CORINTH          N/A     75  66  73 S7G14     30.01                   
GOLDN TRIANGLE FAIR      74  70  87 SE9       30.06F                  
STARKVILLE       N/A     73  68  83 CALM      30.07F                  
TUPELO         FAIR      74  69  85 S6        30.05R                  
$$

MSZ040-058-230500-
CENTRAL MISSISSIPPI
  
CITY           SKY/WX    TMP DP  RH WIND       PRES   REMARKS
JACKSON INTL   FAIR      84  74  71 S8        30.04S HX  91           
JACKSON HAWKNS FAIR      82  76  81 SE7       30.05S                  
MADISON        FAIR      79  77  94 CALM      30.04S                  
MERIDIAN KEY   FAIR      81  75  82 CALM      30.06F                  
MERIDIAN NAS   FAIR      78  73  84 E8        30.07F                  
RAYMOND        FAIR      79  79 100 CALM      30.03F                  
VICKSBURG VKS  CLEAR     82  79  89 SE5       30.03R HX  93           
$$

MSZ059>079-230500-
SOUTH MISSISSIPPI
  
CITY           SKY/WX    TMP DP  RH WIND       PRES   REMARKS
BROOKHAVEN     FAIR      82  77  83 E3        30.08S HX  91           
HATTIESBURG    FAIR      81  77  88 SE5       30.09R                  
LAUREL         CLEAR     82  77  85 S7        30.07F HX  91           
MCCOMB         FAIR      82  78  88 S5        30.07R HX  91           
NATCHEZ        FAIR      81  77  88 S8        30.05R                  
PINE BELT      FAIR      81  78  91 S7        30.09S                  
$$

MSZ080>082-230500-
COASTAL MISSISSIPPI
  
CITY           SKY/WX    TMP DP  RH WIND       PRES   REMARKS
BILOXI         FAIR      85  77  78 S10       30.08F HX  95           
PASCAGOULA     FAIR      79  75  87 CALM      30.09S                  
GULFPORT       FAIR      85  77  77 S7        30.08S HX  95           
$$

LAZ007>009-015>016-023>026-230500-
NORTHEAST LOUISIANA
  
CITY           SKY/WX    TMP DP  RH WIND       PRES   REMARKS
BASTROP        FAIR      82  78  86 SE3       30.01S HX  91           
TALLULAH/VBURG FAIR      81  77  88 S3        30.02S                  
VIDALIA        FAIR      83  77  82 S6        30.03R HX  91           
$$